Regional Weather Roundup
Issued by NWS Midland/Odessa, TX

Skip options and go directly to product.
Home | Oldest Version | Previous Version | Current Version | All | Text Only | Save Text | Print | Product List | Glossary On

Skip product version selection by date and time.   
845
ASUS44 KMAF 241210
RWRMAF
MIDLAND AREA WEATHER ROUNDUP
NATIONAL WEATHER SERVICE MIDLAND TX
700 AM CDT THU APR 24 2014

...IN SOUTHWEST TEXAS AND SOUTHEAST NEW MEXICO...

CITY           SKY/WX    TMP DP  RH WIND       PRES   REMARKS
ALPINE         CLEAR     59  21  23 SE6       30.05R
ANDREWS        FAIR      58  26  29 NW12G17   29.91R
ARTESIA        CLEAR     48  19  32 N10       29.97R
BIG SPRING     CLEAR     55  48  79 CALM      29.88R
CARLSBAD       CLEAR     55  25  31 VRB3      29.95R
DRYDEN           N/A     64  57  78 N9        29.85R
FORT STOCKTON  PTCLDY    63  26  24 W10       29.92R
GUAD PASS      CLEAR     58  14  17 W3        30.04R
HOBBS          CLEAR     57  14  18 NW15G23   29.95
MARFA          PTCLDY    55  18  22 W3        30.02R
MIDLAND AIRPK  CLEAR     63  34  33 NW7       29.89R
MIDLAND INTL   CLEAR     59  39  47 N9        29.88R
ODESSA           N/A    N/A N/A N/A MISG      29.89R
PECOS          PTCLDY    56  33  43 W7        29.90R
PRESIDIO       FAIR      69  25  18 E3        29.92R
SEMINOLE       CLEAR     54  24  30 W9        29.92R
SNYDER         CLEAR     61  37  41 SW6       29.83R
WINK           CLEAR     58  27  30 N5        29.89R
$$
...OTHER STATIONS IN TEXAS...

CITY           SKY/WX    TMP DP  RH WIND       PRES   REMARKS
ABILENE        CLEAR     67  60  78 S7        29.78S
AMARILLO       PTCLDY    48  35  60 N24G33    29.96R
AUSTIN         MOCLDY    66  63  90 SE7       29.80S
BROWNSVILLE    CLOUDY    73  70  90 S16G22    29.77R
CORPUS CHRISTI MOCLDY    72  67  84 S9        29.81R
DALLAS FTW     MOCLDY    67  61  81 S16G24    29.75F
DEL RIO        MOCLDY    68  61  78 E6        29.79R
EL PASO        PTCLDY    67  10  11 N15G23    29.97R
HOUSTON INT    CLOUDY    70  65  84 S7        29.86R
LUBBOCK        PTCLDY    57  33  40 N21G36    29.89R BLWGDUST
SAN ANGELO     CLEAR     69  61  75 NW8       29.82R
SAN ANTONIO    CLOUDY    68  64  87 S12       29.80S
WACO           PTCLDY    65  62  90 S13       29.79R
WICHITA FALLS  NOT AVBL
$$
...OTHER LOCATIONS IN NEW MEXICO...

CITY           SKY/WX    TMP DP  RH WIND       PRES   REMARKS
ALAMAGORDO     CLEAR     54  10  17 N13       29.99R
ALBUQUERQUE    CLEAR     48   9  20 NW18G25   30.08R
CANNON AFB     PTCLDY    48  32  54 N12       29.99R HAZE
CLOVIS         MOCLDY    46  30  53 N16       30.01R WCI  40
HOLLOMAN AFB   CLEAR     49  13  23 N12       29.99R
ROSWELL        CLEAR     55  14  19 N7        29.99R
RUIDOSO        CLEAR     45   9  23 NW16G29   30.08R WCI  37
SANTA FE       CLEAR     34   7  32 N9        30.06R WCI  27
TRUTH OR CONSE CLEAR     49  11  21 NW8       30.04R
TUCUMCARI      CLOUDY    50  33  52 N16       29.99R
$$

USA.gov is the U.S. government's official web portal to all federal, state and local government web resources and services.